Volver al catálogo

GEESAT 3-07

ActivoComunicacionesLEO
NORAD 61017·PAYLOAD·🇨🇳 China

Lanzado Sep 5, 2024 desde Taiyuan Satellite Launch Center

Loading…

Próximos Pases (próximas 24 horas)

TLE

ActualizadoSource: Space-Track

Época: Sep 14, 2026, 13:43 UTC

1 61017U 24159G   26257.57187125  .00001264  00000-0  17527-3 0  9992
2 61017  49.9950  28.2251 0010726  16.6093 343.5195 14.84494025109421

Sigue GEESAT 3-07 en tiempo real con AllMySat

Download on the App Store